User: anonymous
Location: Caltech
(34.1382°N, 118.1253°W)
Time: 08:20:58
(UTC-07:00)
Language:

ASTRO E2 - Orbit

View from above orbital plane
View from above orbital plane
View from above satellite
View from above satellite

Ground track
Ground track

The orbit data is extracted from the following two-line orbital elements,

1 28773U 05025A   14203.77301706  .00001116  00000-0  63790-4 0  3240
2 28773 031.3832 308.2309 0005264 182.5689 314.0748 15.09055508496576
Epoch (UTC): 22 July 2014 18:33:08
Eccentricity: 0.0005264
inclination: 31.3832°
perigee height: 535 km
apogee height: 543 km
right ascension of ascending node: 308.2309°
argument of perigee: 182.5689°
revolutions per day: 15.09055508
mean anomaly at epoch: 314.0748°
orbit number at epoch: 49657

The dashed part of the orbit path shows where the satellite is in the earth's shadow,  

DLR